Regional Weather Roundup
Issued by NWS

Home | Current Version | Previous Version | Graphics & Text | Print | Product List | Glossary On
Versions: 1 2 3 4 5 6 7 8 9 10 11 12 13 14 15 16 17 18 19 20 21 22 23 24 25 26 27 28 29 30 31 32 33 34 35 36 37 38 39 40 41 42 43 44 45 46 47 48 49 50
000
ASUS43 KMPX 180201
RWRMN
WEATHER ROUNDUP FOR MINNESOTA
NATIONAL WEATHER SERVICE TWIN CITIES/CHANHASSEN MN
800 PM CST SUN DEC 17 2017


NOTE: "FAIR" INDICATES FEW OR NO CLOUDS BELOW 12,000 FEET WITH NO
SIGNIFICANT WEATHER AND/OR OBSTRUCTIONS TO VISIBILITY. N/A MEANS
CURRENT SKY AND/OR WEATHER CONDITIONS ARE NOT AVAILABLE.

MNZ060>063-068>070-180300-
   Twin Cities Metro

CITY           SKY/WX    TMP DP  RH WIND       PRES   REMARKS
TWIN CITIES    CLOUDY    27  25  92 VRB3      29.99R FOG
ST PAUL        CLOUDY    27  24  89 S5        30.01R FOG     WCI  22
CRYSTAL        CLOUDY    26  20  77 CALM      29.97S HAZE
BLAINE         CLOUDY    27  27 100 CALM      29.97S FOG
LAKEVILLE      CLOUDY    25  25 100 CALM      29.98S FOG
EDEN PRAIRIE   CLOUDY    27  23  85 S5        29.98R FOG     WCI  22
SOUTH ST PAUL    N/A     27  26  94 CALM      29.99S FOG
LAKE ELMO      CLOUDY    28  27  93 S6        29.99R WCI  22
$$
MNZ001>005-007-008-013>017-022>024-027-028-180300-
   Northwest Minnesota

CITY           SKY/WX    TMP DP  RH WIND       PRES   REMARKS
BEMIDJI        CLOUDY    24  23  97 S8        29.85S FOG     WCI  15
HALLOCK        CLEAR     19  18  93 S18       29.76F FOG     WCI   4
ROSEAU         CLEAR     19  16  86 S12       29.77F WCI   7
WARROAD        CLEAR     18  14  86 S7        29.78F WCI   8
CROOKSTON      CLOUDY    27  25  93 S14       29.83F FOG     WCI  15
FOSSTON        FOG       21  21 100 S9        29.84F VSB 1/2 WCI  11
DETROIT LAKES  CLOUDY    28  28 100 S13       29.88S FOG     WCI  18
MOORHEAD       FOG       28  28 100 S15       29.87F VSB 1/2 WCI  17
PARK RAPIDS    CLOUDY    27  24  89 S12       29.87F WCI  17
MAHNOMEN       CLOUDY    26  25  96 S14       29.85F FOG     WCI  14
$$
MNZ006-009>011-018-025>026-180300-
   North Central Minnesota

CITY           SKY/WX    TMP DP  RH WIND       PRES   REMARKS
BAUDETTE       CLEAR     20  18  92 S9        29.80F WCI   9
FLAG ISLAND    CLEAR     10   9  92 S8        29.76F WCI  -1
INTL FALLS     CLOUDY    27  24  89 S7        29.83F FOG     WCI  19
WASKISH        CLEAR     23  21  93 S5        29.83F WCI  17
BIG FORK       CLOUDY    27  25  93 S8        29.86F WCI  18
LONGVILLE      CLOUDY    27  25  93 S7        29.89F FOG     WCI  19
GRAND RAPIDS   CLOUDY    26  24  92 SW5       29.90F WCI  20
CRANE LAKE     CLOUDY    25  23  93 S3        29.88F
ORR            CLOUDY    25  21  86 S5        29.84F WCI  19
COOK           CLOUDY    25  23  93 SW7       29.87F WCI  17
WALKER         CLOUDY    26  25  94 S8        29.86F WCI  18
$$
MNZ012-019>021-037-180300-
   Northeast Minnesota

CITY           SKY/WX    TMP DP  RH WIND       PRES   REMARKS
DULUTH         CLOUDY    24  21  88 SW6       29.90F WCI  17
ELY            CLOUDY    21  21 100 SW6       29.88S WCI  14
HIBBING        CLOUDY    23  22  96 SW5       29.89F WCI  17
EVELETH        CLOUDY    24  21  90 SW7       29.90F WCI  16
DULUTH HARBOR  CLOUDY    27  23  86 SW6       29.96S WCI  20
TWO HARBORS    CLOUDY    28  25  86 SW3       29.90F
SILVER BAY     CLOUDY    27  25  93 W5        29.89F WCI  21
GRAND MARAIS     N/A     28  23  81 W6        29.92S WCI  22
G MARAIS ARPRT CLOUDY    21  18  86 CALM      29.85F
$$
MNZ029>031-032-039>041-046>048-054>057-064-180300-
   West Central Minnesota

CITY           SKY/WX    TMP DP  RH WIND       PRES   REMARKS
FERGUS FALLS   PTCLDY    27  27 100 SE6       29.93S FOG     WCI  20
WHEATON        CLOUDY    28  27  93 SE8       29.92S WCI  20
MORRIS         CLOUDY    28  27  93 S7        29.90F FOG     WCI  21
ALEXANDRIA     CLOUDY    26  25  96 S6        29.91F WCI  19
ELBOW LAKE     FAIR      24  24 100 SE7       29.91S FOG     WCI  16
WADENA         FOG       27  27 100 SW7       29.89F VSB 3/4 WCI  19
GLENWOOD       CLOUDY    27  25  93 S5        29.91F WCI  21
APPLETON       CLOUDY    30  27  86 SE7       29.92S WCI  23
BENSON         CLOUDY    28  25  86 S6        29.94S FOG     WCI  22
ORTONVILLE     CLOUDY    28  27  93 SE5       29.91S WCI  23
MADISON        CLOUDY    34  28  80 S7        29.92F WCI  28
WILLMAR        FAIR      28  27  93 SE5       29.95S FOG     WCI  23
$$
MNZ033>034-036-042>043-049>051-058-059-180300-
   Central Minnesota

CITY           SKY/WX    TMP DP  RH WIND       PRES   REMARKS
ST CLOUD       CLOUDY    23  21  92 SE5       29.95F WCI  17
SAUK CENTRE    CLOUDY    25  23  93 SE3       29.92F
PAYNESVILLE    CLOUDY    27  25  90 S3        29.94F
AITKIN         CLOUDY    23  21  93 CALM      29.90F
PINE RIVER     CLOUDY    25  23  93 S6        29.93F FOG     WCI  18
BRAINERD       CLOUDY    27  21  78 S6        29.92F WCI  20
STAPLES        FOG       25  25 100 S6        29.91S VSB 1/4 WCI  18
LONG PRAIRIE   CLOUDY    23  23 100 SE5       29.91F FOG     WCI  17
LITTLE FALLS   CLOUDY    25  18  74 S5        29.93F WCI  19
LITCHFIELD     CLOUDY    28  25  86 CALM      29.95F
BUFFALO        CLOUDY    25  21  85 CALM      29.98S
MAPLE LAKE     CLOUDY    26  24  90 CALM      29.97F
HUTCHINSON     CLOUDY    28  24  87 CALM      29.97F
$$
MNZ037-044-045-052-053-180300-
   East Central Minnesota

CITY           SKY/WX    TMP DP  RH WIND       PRES   REMARKS
PRINCETON      CLOUDY    25  21  86 CALM      29.95F
MORA           PTCLDY    18  14  86 CALM      29.97S
CAMBRIDGE      CLOUDY    27  19  74 CALM      29.97S
RUSH CITY      CLOUDY    22  20  93 CALM      29.97S FOG
MOOSE LAKE     CLOUDY    25  21  86 SW3       29.92S
HINCKLEY       FOG       18  18 100 S3        29.95S VSB 1/4
CLOQUET        CLOUDY    25  19  80 S3        29.91F
MCGREGOR       CLOUDY    27  23  86 S3        29.92S
$$
MNZ071>073-080-081-089-090-097-098-180300-
   Southwest Minnesota

CITY           SKY/WX    TMP DP  RH WIND       PRES   REMARKS
MONTEVIDEO     CLOUDY    28  27  93 S5        29.94S WCI  23
GRANITE FALLS  CLOUDY    30  27  86 SE8       29.95F WCI  23
CANBY          CLOUDY    32  29  88 S3        29.93S
MARSHALL       CLOUDY    29  26  89 S6        29.94F WCI  23
REDWOOD FALLS  CLOUDY    29  24  82 S6        29.96S WCI  23
OLIVIA         CLOUDY    30  27  86 S6        29.95F WCI  24
PIPESTONE      CLOUDY    30  27  86 SW5       29.93R WCI  25
WINDOM           N/A     27  16  63 CALM      29.95S HAZE
WORTHINGTON    CLOUDY    24  24 100 S7        29.95S WCI  16
JACKSON        CLOUDY    23  21  93 CALM      29.97R FOG
SLAYTON        CLOUDY    29  27  90 S5        29.94F WCI  24
$$
MNZ065>067-074>077-082>085-091>093-180300-
   South Central Minnesota

CITY           SKY/WX    TMP DP  RH WIND       PRES   REMARKS
MANKATO        CLOUDY    25  24  96 S5        29.98F FOG     WCI  19
NEW ULM        CLOUDY    27  21  80 S6        29.97S WCI  20
ST JAMES       CLOUDY    23  21  93 CALM      29.99R
FAIRMONT       CLOUDY    25  22  88 S6        29.98S WCI  18
GLENCOE        CLOUDY    28  25  91 CALM      29.97S
FARIBAULT      CLOUDY    27  25  93 CALM      29.98S FOG
OWATONNA       CLOUDY    28  27  93 CALM      29.97S FOG
WASECA         CLOUDY    28  27  93 CALM      29.99R FOG
$$
MNZ078>079-086>088-094>096-180300-
   Southeast Minnesota

CITY           SKY/WX    TMP DP  RH WIND       PRES   REMARKS
ROCHESTER      FOG       29  28  96 S5        29.96S VSB 1/4 WCI  24
RED WING       CLOUDY    27  25  93 CALM      29.99S FOG
STANTON        CLOUDY    27  25  94 CALM      29.97F FOG
DODGE CENTER   CLOUDY    27  27 100 CALM      29.95S FOG
WINONA         CLOUDY    32  28  86 CALM      30.00S
PRESTON        LGT SNOW  28  27  96 S5        29.97R WCI  23
$$
ABBREVIATIONS USED IN REMARKS
   TC - TEMPERATURES IN CELSIUS
  WCI - WIND CHILL INDEX
   HX - HEAT INDEX
  VSB - VISIBILITY
$$




USA.gov is the U.S. government's official web portal to all federal, state and local government web resources and services.